Погода в Самете

Таиланд     13°18′55″N   100°57′23″E
темп.,
°C
ветер,
м/с
пор.,
м/с
влажн.,
%
обл.,
%
осадки,
мм/ч
давл.,
гПа
погр.,
м
15 апреля, чт
чт1501:00+25юв2276100 0.0 101179
04:00+25ю2278100 0.0 1009116
07:00+25ююв238279 0.3 1011168
10:00+30ююз336510 0.0 1012965
13:00+32юз546226 0.0 10091321
16:00+31юз44635 0.0 1006782
19:00+29ююз35695 0.0 1007157
22:00+27ю4777100 0.0 1010346
16 апреля, пт
пт1601:00+27ю4680100 0.0 1008236
04:00+26ю3386100 1.2 1008149
07:00+27ююв338479 1.2 1009186
10:00+31ююз335898 0.0 10111107
13:00+33юз5453100 0.0 10091451
16:00+32юз555921 0.0 1007983
19:00+29ю476521 0.0 1008280
22:00+27ююв4778100 0.0 1011346
17 апреля, сб
сб1701:00+27ю368174 0.0 1010257
04:00+25ююв238991 3.8 1009114
07:00+26ююв348598 6.6 1011168
10:00+31ю336260 2.3 10121118
13:00+31ююз3361100 6.6 10101120
16:00+30ююв2361100 0.3 1008674
19:00+28ююв3475100 1.4 1010199
22:00+26ююз1283100 8.1 101462
18 апреля, вс
вс1801:00+26з2284100 9.5 1012121
04:00+26зсз1186100 0.0 101183
07:00+26св1185100 0.0 1012157
10:00+26в1181100 1.3 1014182
13:00+27ююв1176100 3.3 1011387
16:00+28ююв126893 0.0 1009542
19:00+27вюв117638 0.0 101059
22:00+26юв2280100 0.0 101170
19 апреля, пн
пн1901:00+24ююв228997 0.9 101097
04:00+24ююв228859 3.1 100974
07:00+25ююв1188100 6.4 101174
10:00+24ююв3488100 1.2 1012185
13:00+26юв2377100 1.2 1010212
16:00+27ююв347288 0.0 1008324
19:00+25ююв338466 0.0 1009137
22:00+24юв3386100 0.0 1010138